Regional Weather Roundup
Issued by NWS

Home | Current Version | Previous Version | Text Only | Print | Product List | Glossary On
Versions: 1 2 3 4 5 6 7 8 9 10 11 12 13 14 15 16 17 18 19 20 21 22 23 24 25 26 27 28 29 30 31 32 33 34 35 36 37 38 39 40 41 42 43 44 45 46 47 48 49 50
000
ASUS44 KFWD 250603
RWRTX
NORTH TEXAS HOURLY WEATHER ROUNDUP
NATIONAL WEATHER SERVICE FORT WORTH TX
100 AM CDT SAT MAR 25 2017

NOTE: "FAIR" INDICATES FEW OR NO CLOUDS BELOW 12,000 FEET WITH NO
SIGNIFICANT WEATHER AND/OR OBSTRUCTIONS TO VISIBILITY.

TXZ118-119-250700-
DALLAS/FORT WORTH METROPLEX

CITY           SKY/WX    TMP DP  RH WIND       PRES   REMARKS
DFW AIRPORT    CLEAR     66  42  41 W17       29.86R
6HR MIN TEMP:  66; 6HR MAX TEMP:  80;

DALLAS LOVE    CLEAR     66  42  41 NW15G24   29.87R
6HR MIN TEMP:  66; 6HR MAX TEMP:  77;

FTW MEACHAM    CLEAR     64  41  42 W17G23    29.90R
6HR MIN TEMP:  64; 6HR MAX TEMP:  80;

DAL-EXECUTIVE  CLEAR     66  42  41 W22G33    29.86R
6HR MIN TEMP:  64; 6HR MAX TEMP:  75;

FTW-ALLIANCE   CLEAR     62  43  49 W13G20    29.89R
6HR MIN TEMP:  62; 6HR MAX TEMP:  79;

FTW-SPINKS     CLEAR     63  41  45 W9        29.92R
6HR MIN TEMP:  62; 6HR MAX TEMP:  79;

ARLINGTON      CLEAR     66  41  40 W13G23    29.88R
6HR MIN TEMP:  66; 6HR MAX TEMP:  80;

GRAND PRAIRIE  CLEAR     66  39  36 W16G32    29.90R
6HR MIN TEMP:  66; 6HR MAX TEMP:  79;

ADDISON        CLEAR     64  42  44 W10G23    29.89S
6HR MIN TEMP:  64; 6HR MAX TEMP:  75;

MESQUITE       CLEAR     65  41  41 W17       29.86S
6HR MIN TEMP:  64; 6HR MAX TEMP:  72;

LANCASTER      CLEAR     65  42  44 W15G23    29.88R
6HR MIN TEMP:  62; 6HR MAX TEMP:  73;

$$

TXZ091>094-102>105-117-120-121-131>134-250700-
NORTH CENTRAL TEXAS

CITY           SKY/WX    TMP DP  RH WIND       PRES   REMARKS
SHRMAN/DENISON CLEAR     60  44  55 W13       29.83F
6HR MIN TEMP:  60; 6HR MAX TEMP:  72;

GAINESVILLE    CLEAR     60  44  55 W17G24    29.88R
6HR MIN TEMP:  60; 6HR MAX TEMP:  76;

BOWIE          PTCLDY    59  47  64 W22       29.89R
6HR MIN TEMP:  59; 6HR MAX TEMP:  77;

BRIDGEPORT     CLEAR     60  44  55 W16G29    29.93R
6HR MIN TEMP:  60; 6HR MAX TEMP:  77;

DECATUR        CLEAR     59  44  56 W18G26    29.89S
6HR MIN TEMP:  59; 6HR MAX TEMP:  77;

DENTON         CLEAR     60  44  55 W12       29.87S
6HR MIN TEMP:  60; 6HR MAX TEMP:  78;

MCKINNEY       CLEAR     63  44  50 W13G22    29.85S
6HR MIN TEMP:  63; 6HR MAX TEMP:  71;

BONHAM         CLEAR     61  43  51 W14       29.82R
ROCKWALL       PTCLDY    66  43  44 W18G26    29.86R
6HR MIN TEMP:  66; 6HR MAX TEMP:  72;

TERRELL        CLEAR     63  48  58 W13       29.86R
6HR MIN TEMP:  63; 6HR MAX TEMP:  71;

WAXAHACHIE     CLEAR     65  42  43 W14G20    29.89R
6HR MIN TEMP:  60; 6HR MAX TEMP:  73;

CLEBURNE       CLEAR     63  41  45 NW10G20   29.93R
GRANBURY       CLEAR     64  41  43 W10G21    29.95R
6HR MIN TEMP:  64; 6HR MAX TEMP:  79;

$$

TXZ083>090-098>101-113>116-127>130-139>142-154-155-250700-
WESTERN NORTH TEXAS

CITY           SKY/WX    TMP DP  RH WIND       PRES   REMARKS
WICHITA FALLS  MOCLDY    54  43  66 NW18G28   29.92R
6HR MIN TEMP:  54; 6HR MAX TEMP:  70;

WF-KICKAPOO    CLEAR     55  44  64 NW10G26   29.94R
6HR MIN TEMP:  55; 6HR MAX TEMP:  72;

VERNON         MOCLDY    55  39  55 NW20      29.98R
6HR MIN TEMP:  55; 6HR MAX TEMP:  66;

ABILENE        CLEAR     54  38  54 NW14      30.04R
6HR MIN TEMP:  54; 6HR MAX TEMP:  74;

ABILENE-DYESS  CLEAR     55  38  54 NW12      30.03R
6HR MIN TEMP:  55; 6HR MAX TEMP:  75;

GRAHAM         CLEAR     58  44  60 W14       29.96R
6HR MIN TEMP:  58; 6HR MAX TEMP:  75;

BRECKENRIDGE   CLEAR     59  40  49 NW20G26   29.99R
6HR MIN TEMP:  59; 6HR MAX TEMP:  80;

CISCO          CLEAR     55  39  54 NW14G20   30.01S
RANGER         CLEAR     57  41  54 NW12G21   29.99R
MINERAL WELLS  CLEAR     61  41  47 NW20G36   29.93R
6HR MIN TEMP:  60; 6HR MAX TEMP:  78; 6HR PCP: TRACE;

STEPHENVILLE   CLEAR     61  38  42 W15G22    29.99R
6HR MIN TEMP:  61; 6HR MAX TEMP:  77;

COMANCHE       CLEAR     60  40  47 NW12      30.00R
6HR MIN TEMP:  60; 6HR MAX TEMP:  76;

BROWNWOOD      CLEAR     59  37  44 NW18      30.01S
COLEMAN        CLEAR     58  37  45 NW14G20   30.04R
6HR MIN TEMP:  58; 6HR MAX TEMP:  76;

$$

TXZ143>147-156>162-174-175-250700-
CENTRAL TEXAS

CITY           SKY/WX    TMP DP  RH WIND       PRES   REMARKS
WACO           CLEAR     62  42  47 W12       29.90R
6HR MIN TEMP:  58; 6HR MAX TEMP:  76;

WACO-MCGREGOR  CLEAR     63  42  46 W7        29.92R
6HR MIN TEMP:  59; 6HR MAX TEMP:  76;

HILLSBORO      CLEAR     60  46  59 NW9       29.91R
6HR MIN TEMP:  59; 6HR MAX TEMP:  74;

CORSICANA      CLEAR     66  64  93 SW8       29.89R
6HR MIN TEMP:  66; 6HR MAX TEMP:  72;

MEXIA          PTCLDY    67  65  96 SW10G18   29.89R
6HR MIN TEMP:  66; 6HR MAX TEMP:  71;

HEARNE         CLEAR     68  67  98 S16       29.92S
6HR MIN TEMP:  67; 6HR MAX TEMP:  71;

CAMERON        CLEAR     69  66  92 SW14G21   29.91S
6HR MIN TEMP:  68; 6HR MAX TEMP:  73;

TEMPLE         CLEAR     60  49  66 W8        29.93R
6HR MIN TEMP:  56; 6HR MAX TEMP:  77;

KILLEEN        PTCLDY    68  36  31 NW13      29.93S
6HR MIN TEMP:  67; 6HR MAX TEMP:  78;

KILLEEN-SKYLRK CLEAR     68  39  34 NW10      29.94R
6HR MIN TEMP:  64; 6HR MAX TEMP:  80;

FORT HOOD      CLEAR     65  39  38 NW10      29.91R
6HR MIN TEMP:  65; 6HR MAX TEMP:  80;

GATESVILLE     CLEAR     63  39  42 W5        29.96R
HAMILTON       CLEAR     61  40  44 NW17      29.98R
6HR MIN TEMP:  60; 6HR MAX TEMP:  77;

LAMPASAS       CLEAR     65  38  37 NW8       29.95S
6HR MIN TEMP:  60; 6HR MAX TEMP:  78;

$$

TXZ095>097-106>112-122>126-135>138-148>153-164>167-250700-
EAST TEXAS

CITY           SKY/WX    TMP DP  RH WIND       PRES   REMARKS
PARIS          CLEAR     64  59  82 W13       29.81S
6HR MIN TEMP:  63; 6HR MAX TEMP:  66;

SULPHUR SPRNGS CLEAR     66  62  86 W9G22     29.85R
6HR MIN TEMP:  66; 6HR MAX TEMP:  68;

MOUNT PLEASANT PTCLDY    67  64  90 SW12      29.84S
6HR MIN TEMP:  63; 6HR MAX TEMP:  67; 6HR PCP:  0.03;

GILMER         MOCLDY    66  63  90 SW7       29.83S
6HR MIN TEMP:  61; 6HR MAX TEMP:  66; 6HR PCP:  0.53;

MINEOLA        PTCLDY    66  64  94 SW6       29.84S
TYLER          PTCLDY    67  64  90 SW12      29.85R
6HR MIN TEMP:  64; 6HR MAX TEMP:  67; 6HR PCP:  0.16;

LONGVIEW       PTCLDY    67  63  87 S14       29.83F
6HR MIN TEMP:  63; 6HR MAX TEMP:  68; 6HR PCP:  0.54;

MARSHALL         N/A    N/A N/A N/A MISG        N/A
ATHENS         CLOUDY    64  64 100 SW6       29.85R
PALESTINE      CLEAR     65  64  97 S8        29.87F
JACKSONVILLE   CLEAR     62  58  88 S12       29.88F
HENDERSON      CLEAR     65  60  83 S7        29.87F
6HR MIN TEMP:  61; 6HR MAX TEMP:  67; 6HR PCP:  0.70;

CENTER         MOCLDY    67  64  92 S7        29.89F
6HR MIN TEMP:  64; 6HR MAX TEMP:  77; 6HR PCP:  0.19;

NACOGDOCHES    PTCLDY    61  54  77 S5        29.89R
6HR MIN TEMP:  61; 6HR MAX TEMP:  72; 6HR PCP:  0.02;

LUFKIN         PTCLDY    59  58  96 S6        29.92F
6HR MIN TEMP:  58; 6HR MAX TEMP:  72; 6HR PCP:  0.38;

$$

SUPPLEMENTAL OBSERVATIONS (CENTRAL)

CITY           SKY/WX    TMP DP  RH WIND       PRES   REMARKS
$$

SUPPLEMENTAL OBSERVATIONS (WEST)

CITY           SKY/WX    TMP DP  RH WIND       PRES   REMARKS
$$

SUPPLEMENTAL OBSERVATIONS (EAST)

CITY           SKY/WX    TMP DP  RH WIND       PRES   REMARKS
$$

SUPPLEMENTAL OBSERVATIONS ARE A COLLECTION OF AUTOMATED INSTRUMENTS
THAT ARE



USA.gov is the U.S. government's official web portal to all federal, state and local government web resources and services.